Погода в Падерборне

Германия     51°43′14″N   8°44′55″E
темп.,
°C
ветер,
м/с
пор.,
м/с
влажн.,
%
обл.,
%
осадки,
мм/ч
давл.,
гПа
погр.,
м
5 августа, чт
чт523:00+14юв118761 1.7 101211
02:00+13ю119067 1.7 101210
05:00+12ю119163 0.0 101110
08:00+15ююз1186100 0.2 1010100
11:00+20ююв1166100 0.3 1010640
14:00+23вюв225010 0.4 10081699
17:00+22ююв235654 0.2 1007918
20:00+19ю23735 0.8 100653
6 августа, пт
пт623:00+15юв2284100 0.3 100623
02:00+13ююв228952 0.3 100619
05:00+13юв339274 0.0 100448
08:00+16ююв3884100 0.1 1004299
11:00+17ююз488290 0.9 1005880
14:00+21зюз796784 2.4 10041416
17:00+20зюз696915 2.0 10051293
20:00+17зюз48840 3.4 1005418
7 августа, сб
сб723:00+14ю39925 0.0 1006200
02:00+13ю359280 0.0 100794
05:00+13ююв2391100 0.0 100651
08:00+15ююв2584100 0.0 1006196
11:00+20юз3555100 0.1 10061241
14:00+21ююз5753100 0.2 10051810
17:00+20ююз4565100 0.2 1004959
20:00+16ююз4987100 1.7 1004335
8 августа, вс
вс823:00+14ююз3109045 0.1 1005356
02:00+13ю412915 0.1 1006361
05:00+14ююз5128426 0.1 1006352
08:00+15юз612855 0.4 1007769
11:00+17юз9137382 0.2 10081201
14:00+18юз8116989 0.6 10101422
17:00+19зюз8126370 0.6 10111556
20:00+16зюз6117523 0.9 1013875
9 августа, пн
пн923:00+14юз5137653 0.0 1015510
02:00+13ююз3117492 0.0 1016284
05:00+12ю3379100 0.0 101557
08:00+14ююз31184100 0.6 1016525
11:00+13ююз41089100 1.9 1017640
14:00+14юз41085100 2.3 1017888
17:00+16зюз598197 0.6 1018763
20:00+16юз498252 1.2 1018358